[[{"header":{"parameterUnit":"m.s-1","parameterCategory":1,"la1":30.2991,"la2":30.254,"lo1":-89.0895,"lo2":-89.0444,"dy":0.0017,"dx":0.0017,"nx":28,"ny":28,"refTime":"2024-06-11T21:00:00:Z","depth":0,"parameterNumber":2,"parameterNumberName":"U-component_of_WINDS"},"data":[0,0,0,0,0,0,0,0,0,0,0,0,0,0,0,0,0,0,0,0,0,0,0,0,0,0,0,0,0,0,0,0,0,0,0,0,0,0,0,0,0,0,0,0,0,0,0,0,0,0,0,0,0,0,0,0,0,0,-1.0134,-1.0134,0,-1.0151,-1.0151,-1.0152,-1.008,-1.0078,-1.0076,-1.0074,-1.0095,-1.0097,-1.0099,0,0,0,0,0,0,0,0,0,0,0,0,0,-1.0039,-1.0041,-1.0134,-1.0134,-1.0134,-1.0151,-1.0151,-1.0152,-1.008,-1.0078,-1.0075,-1.0073,-1.0094,-1.0097,-1.01,0,0,0,0,0,0,0,0,0,0,0,0,0,-1.0071,-1.0042,-1.0134,-1.01,-1.0098,-1.0151,-1.0151,-1.0152,-1.0081,-1.0078,-1.0075,-1.0072,-1.0093,-1.0096,-1.01,-1.0187,0,0,-1.0112,-1.0113,0,0,0,0,0,0,0,0,-1.0069,-1.0075,-1.0105,-1.0103,-1.01,-1.011,-1.0126,-1.0164,-1.0082,-1.0087,-1.0074,-1.007,-1.0102,-1.0105,-1.0116,-1.0188,-1.0189,-1.0112,-1.0114,-1.0116,-1.0117,0,0,0,0,0,0,0,-1.0067,-1.0073,-1.0141,-1.0106,-1.0102,-1.0085,-1.0086,-1.0133,-1.0113,-1.0087,-1.0081,-1.0084,-1.01,-1.0112,-1.0116,-1.0189,-1.0112,-1.0115,-1.0118,-1.0119,-1.0333,-1.0336,0,0,0,0,0,0,-1.0069,-1.0072,-1.014,-1.0141,-1.0076,-1.0089,-1.009,-1.011,-1.0112,-1.0109,-1.0087,-1.0081,-1.0107,-1.0111,-1.0116,-1.0218,-1.0116,-1.012,-1.0122,-1.033,-1.0334,-1.0338,0,0,0,0,0,0,-1.0067,-1.0076,-1.0139,-1.0105,-1.0112,-1.0094,-1.0117,-1.0112,-1.0124,-1.0112,-1.0108,-1.0103,-1.0105,-1.0111,-1.017,-1.0218,-1.0121,-1.0125,-1.0326,-1.0331,-1.0336,-1.0423,0,0,0,0,0,0,-1.0065,-1.0076,-1.0109,-1.0106,-1.0114,-1.0193,-1.012,-1.0115,-1.013,-1.0122,-1.0126,-1.0123,-1.0103,-1.0164,-1.0173,-1.0221,-1.0128,-1.0321,-1.0328,-1.0334,-1.0416,-1.043,-1.0443,0,0,0,0,0,-1.0062,-1.0133,-1.0111,-1.0119,-1.0155,-1.0196,-1.02,-1.0174,-1.0134,-1.0167,-1.0159,-1.0123,-1.021,-1.0171,-1.0181,-1.023,-1.0318,-1.0326,-1.0334,-1.041,-1.0427,-1.0443,0,0,0,0,0,0,-1.0143,-1.0132,-1.0107,-1.018,-1.0189,-1.0183,-1.0225,-1.0194,-1.0216,-1.0208,-1.0175,-1.0176,-1.0241,-1.0241,-1.0197,-1.0314,-1.0258,-1.0268,-1.0312,-1.0329,-1.0342,-1.0342,-1.0131,0,0,0,0,0,-1.0169,-1.0203,-1.0192,-1.0257,-1.0263,-1.0243,-1.026,-1.0239,-1.0247,-1.0251,-1.0248,-1.0258,-1.0287,-1.0308,-1.0334,-1.0414,-1.0414,-1.0453,-1.0467,-1.0478,-1.0488,-1.053,-1.0547,-1.0363,-1.0363,-1.0363,0,0,-1.0224,-1.0222,-1.0246,-1.0273,-1.0278,-1.0314,-1.0247,-1.0288,-1.0314,-1.0258,-1.0313,-1.0311,-1.032,-1.039,-1.042,-1.0392,-1.0538,-1.0488,-1.0497,-1.05,-1.0539,-1.0557,-1.0572,-1.0368,-1.0367,-1.0366,0,0,-1.0343,-1.0344,-1.0399,-1.0404,-1.0411,-1.0397,-1.041,-1.0409,-1.0405,-1.0459,-1.0417,-1.0448,-1.05,-1.0508,-1.0519,-1.0638,-1.0605,-1.0647,-1.0719,-1.076,-1.0775,-1.0788,-1.0831,-1.0846,-1.0656,-1.0656,-1.0657,0,-1.0411,-1.0463,-1.0431,-1.0474,-1.0488,-1.0436,-1.0491,-1.0498,-1.0514,-1.0524,-1.0491,-1.0554,-1.0557,-1.0628,-1.0656,-1.0667,-1.0681,-1.0648,-1.0775,-1.0788,-1.0799,-1.084,-1.0856,-1.0662,-1.0661,-1.066,-1.066,0,-1.0546,-1.0582,-1.0625,-1.064,-1.0658,-1.0707,-1.0683,-1.0705,-1.0682,-1.0671,-1.0727,-1.0727,-1.0753,-1.0768,-1.0746,-1.0835,-1.0817,-1.078,-1.0723,-1.0822,-1.086,-1.0875,-1.0669,-1.0667,-1.0666,-1.0664,0,0,-1.0719,-1.0714,-1.0731,-1.0736,-1.0739,-1.0767,-1.0813,-1.0837,-1.0856,-1.0868,-1.0907,-1.095,-1.0915,-1.0928,-1.0906,-1.0942,-1.1037,-1.09,-1.09,-1.0927,-1.1135,-1.1165,-1.1183,-1.1014,-1.1017,-1.1019,-1.1135,0,-1.0836,-1.0914,-1.0886,-1.0967,-1.1,-1.095,-1.099,-1.0996,-1.0987,-1.1014,-1.1003,-1.1035,-1.0987,-1.0994,-1.1027,-1.1018,-1.1078,-1.1009,-1.1051,-1.1052,-1.1052,-1.1203,-1.1234,-1.1343,-1.1149,-1.1152,-1.1154,0,-1.0984,-1.1,-1.1084,-1.108,-1.1092,-1.1129,-1.1148,-1.1174,-1.118,-1.117,-1.1183,-1.1153,-1.1198,-1.1139,-1.1201,-1.1154,-1.1169,-1.1167,-1.1171,-1.1175,-1.1111,-1.1213,-1.1378,-1.1395,-1.1176,-1.1175,-1.1173,0,-1.1103,-1.1146,-1.1201,-1.1208,-1.1204,-1.1231,-1.1231,-1.1233,-1.1248,-1.1264,-1.1274,-1.1296,-1.1308,-1.1326,-1.1302,-1.1261,-1.1368,-1.1307,-1.1362,-1.1363,-1.1389,-1.1388,-1.156,-1.1396,-1.1395,-1.1395,-1.1395,0,-1.1238,-1.1291,-1.1255,-1.1289,-1.1347,-1.1313,-1.1372,-1.1366,-1.1368,-1.14,-1.1358,-1.1389,-1.1355,-1.1384,-1.1365,-1.1419,-1.1425,-1.1419,-1.1414,-1.1424,-1.1425,-1.1435,-1.1427,-1.1399,-1.1398,-1.1398,-1.1397,0,-1.1382,-1.136,-1.1417,-1.1407,-1.1406,-1.1449,-1.1442,-1.1473,-1.1459,-1.1501,-1.1509,-1.1488,-1.1519,-1.1496,-1.1527,-1.1515,-1.1586,-1.157,-1.1584,-1.1581,-1.1637,-1.1633,-1.1823,-1.1847,-1.1666,-1.1668,-1.1669,0,-1.1471,-1.151,-1.1505,-1.1523,-1.1525,-1.1555,-1.1569,-1.1537,-1.1555,-1.1563,-1.1593,-1.162,-1.164,-1.1691,-1.168,-1.1703,-1.1687,-1.1752,-1.1691,-1.1699,-1.169,-1.1688,-1.1692,-1.1766,-1.1768,-1.177,-1.1771,0,-1.1631,-1.1617,-1.164,-1.1659,-1.1677,-1.1691,-1.1701,-1.1718,-1.1685,-1.1707,-1.1737,-1.1752,-1.1782,-1.181,-1.1828,-1.1828,-1.1795,-1.179,-1.1804,-1.1816,-1.1823,-1.1821,-1.162,-1.1786,-1.1785,-1.1784,-1.1783,-1.1782,-1.1751,-1.1783,-1.1784,-1.181,-1.1814,-1.1824,-1.1853,-1.1841,-1.1866,-1.1888,-1.1866,-1.1903,-1.1906,-1.1927,-1.1931,-1.1959,-1.1933,-1.1953,-1.1958,-1.1965,-1.1973,-1.1817,-1.1962,-1.1962,-1.1961,-1.1961,-1.1961,0,-1.1909,-1.1906,-1.1931,-1.1946,-1.1966,-1.193,-1.1939,-1.1959,-1.1991,-1.1996,-1.2016,-1.2051,-1.2076,-1.2065,-1.2088,-1.2113,-1.2098,-1.212,-1.2119,-1.2119,-1.1995,-1.1981,-1.2131,-1.2131,-1.2131,-1.2131,-1.2131,-1.2131,-1.1995,-1.2048,-1.2034,-1.2088,-1.2084,-1.2119,-1.2127,-1.2136,-1.2139,-1.2179,-1.22,-1.2192,-1.2191,-1.2212,-1.2234,-1.223,-1.2241,-1.2269,-1.226,-1.2145,-1.2128,-1.2112,-1.2099,-1.2271,-1.2272,-1.2382,-1.2383,-1.2384]},{"header":{"parameterUnit":"m.s-1","parameterCategory":1,"la1":30.2991,"la2":30.254,"lo1":-89.0895,"lo2":-89.0444,"dy":0.0017,"dx":0.0017,"nx":28,"ny":28,"refTime":"2024-06-11T21:00:00:Z","depth":0,"parameterNumber":3,"parameterNumberName":"V-component_of_WINDS"},"data":[0,0,0,0,0,0,0,0,0,0,0,0,0,0,0,0,0,0,0,0,0,0,0,0,0,0,0,0,0,0,0,0,0,0,0,0,0,0,0,0,0,0,0,0,0,0,0,0,0,0,0,0,0,0,0,0,0,0,-3.0999,-3.0999,0,-3.1064,-3.1065,-3.1066,-3.1044,-3.1043,-3.1041,-3.104,-3.1104,-3.1107,-3.111,0,0,0,0,0,0,0,0,0,0,0,0,0,-3.0851,-3.0853,-3.0998,-3.0999,-3.1,-3.1064,-3.1065,-3.1066,-3.1044,-3.1043,-3.1041,-3.1039,-3.1103,-3.1106,-3.111,0,0,0,0,0,0,0,0,0,0,0,0,0,-3.0915,-3.0854,-3.0998,-3.0997,-3.0998,-3.1064,-3.1065,-3.1066,-3.1045,-3.1043,-3.1041,-3.1039,-3.1102,-3.1106,-3.111,-3.118,0,0,-3.1124,-3.1126,0,0,0,0,0,0,0,0,-3.0912,-3.0921,-3.0997,-3.0997,-3.0998,-3.1044,-3.1036,-3.1104,-3.1045,-3.1027,-3.104,-3.1038,-3.1085,-3.1091,-3.1108,-3.1183,-3.1186,-3.1124,-3.1127,-3.1129,-3.113,0,0,0,0,0,0,0,-3.0907,-3.0918,-3.1024,-3.0998,-3.0999,-3.0992,-3.0999,-3.1049,-3.1067,-3.1028,-3.1027,-3.1035,-3.1085,-3.1103,-3.1109,-3.1187,-3.1124,-3.1128,-3.1131,-3.1133,-3.1321,-3.1323,0,0,0,0,0,0,-3.0903,-3.0914,-3.1022,-3.1026,-3.0949,-3.0997,-3.1004,-3.1031,-3.1066,-3.107,-3.1037,-3.1034,-3.1097,-3.1104,-3.1111,-3.1194,-3.1129,-3.1133,-3.1136,-3.1319,-3.1321,-3.1324,0,0,0,0,0,0,-3.09,-3.0913,-3.102,-3.097,-3.0983,-3.1001,-3.1032,-3.1034,-3.1052,-3.1073,-3.1076,-3.1052,-3.1095,-3.1105,-3.1163,-3.1196,-3.1135,-3.1139,-3.1316,-3.132,-3.1323,-3.1361,0,0,0,0,0,0,-3.0895,-3.0912,-3.0939,-3.0971,-3.0986,-3.1072,-3.1034,-3.1036,-3.106,-3.1057,-3.1088,-3.1091,-3.1095,-3.1156,-3.1168,-3.1201,-3.1143,-3.1313,-3.1318,-3.1322,-3.1357,-3.1365,-3.1372,0,0,0,0,0,-3.089,-3.0947,-3.0941,-3.0954,-3.1021,-3.1074,-3.1082,-3.1086,-3.1063,-3.109,-3.1103,-3.109,-3.1191,-3.1163,-3.1175,-3.121,-3.1311,-3.1316,-3.1321,-3.1353,-3.1363,-3.1372,0,0,0,0,0,0,-3.0918,-3.0951,-3.0945,-3.1014,-3.1041,-3.107,-3.1104,-3.1097,-3.113,-3.1126,-3.1127,-3.1135,-3.1194,-3.1208,-3.1176,-3.1279,-3.1247,-3.1255,-3.1267,-3.1277,-3.1285,-3.128,-3.1147,0,0,0,0,0,-3.0932,-3.0974,-3.1,-3.1058,-3.1072,-3.1086,-3.1109,-3.111,-3.1137,-3.1149,-3.1166,-3.1193,-3.123,-3.1255,-3.129,-3.1359,-3.1364,-3.1389,-3.1397,-3.1403,-3.141,-3.1445,-3.1456,-3.1341,-3.1341,-3.1341,0,0,-3.0962,-3.0985,-3.1011,-3.1064,-3.1085,-3.1126,-3.1096,-3.1141,-3.1171,-3.1155,-3.1211,-3.1225,-3.1254,-3.1318,-3.1346,-3.1331,-3.1443,-3.141,-3.1415,-3.1418,-3.1451,-3.1462,-3.1472,-3.1344,-3.1344,-3.1343,0,0,-3.1036,-3.1059,-3.1109,-3.1131,-3.1164,-3.1173,-3.1185,-3.1216,-3.1224,-3.1281,-3.1269,-3.1304,-3.1369,-3.139,-3.141,-3.1492,-3.148,-3.1503,-3.1544,-3.1578,-3.1587,-3.1595,-3.1623,-3.1633,-3.151,-3.151,-3.151,0,-3.1069,-3.1131,-3.1136,-3.1182,-3.1205,-3.1194,-3.1243,-3.1264,-3.1307,-3.1322,-3.1305,-3.1385,-3.1405,-3.1472,-3.1492,-3.1508,-3.1521,-3.1499,-3.1586,-3.1594,-3.1601,-3.1628,-3.1638,-3.1512,-3.1512,-3.1512,-3.1512,0,-3.1168,-3.1212,-3.1248,-3.1291,-3.1318,-3.1365,-3.1375,-3.1402,-3.14,-3.141,-3.1467,-3.149,-3.1529,-3.1546,-3.1544,-3.1612,-3.1602,-3.1585,-3.1553,-3.1615,-3.1639,-3.165,-3.1516,-3.1515,-3.1514,-3.1514,0,0,-3.1262,-3.1306,-3.1319,-3.1337,-3.1373,-3.1406,-3.1452,-3.1492,-3.1514,-3.1543,-3.1581,-3.1636,-3.1621,-3.1643,-3.1643,-3.1674,-3.1735,-3.1654,-3.1654,-3.1667,-3.181,-3.1821,-3.1832,-3.1729,-3.1731,-3.1732,-3.1807,0,-3.1338,-3.1421,-3.1426,-3.15,-3.1539,-3.1529,-3.1569,-3.1594,-3.1605,-3.1639,-3.165,-3.1688,-3.1666,-3.1679,-3.1709,-3.1722,-3.1764,-3.1717,-3.1762,-3.1763,-3.1753,-3.1846,-3.1857,-3.1927,-3.1817,-3.1818,-3.1819,0,-3.1438,-3.1471,-3.1549,-3.1578,-3.1595,-3.1631,-3.1667,-3.17,-3.1728,-3.1733,-3.1758,-3.1754,-3.18,-3.1767,-3.1829,-3.1797,-3.1816,-3.1825,-3.1828,-3.183,-3.1794,-3.1849,-3.1949,-3.1959,-3.1835,-3.1834,-3.1833,0,-3.1495,-3.156,-3.1615,-3.1631,-3.1667,-3.1692,-3.1708,-3.1734,-3.1757,-3.1788,-3.1803,-3.1839,-3.1858,-3.1885,-3.189,-3.1866,-3.1952,-3.192,-3.1956,-3.1955,-3.1973,-3.1971,-3.2075,-3.1988,-3.1988,-3.1988,-3.1987,0,-3.1579,-3.1627,-3.1641,-3.1675,-3.1728,-3.1733,-3.1784,-3.1798,-3.1821,-3.1856,-3.1849,-3.1882,-3.1888,-3.1921,-3.1925,-3.1975,-3.1984,-3.1988,-3.1989,-3.1988,-3.1987,-3.1999,-3.1994,-3.199,-3.199,-3.1989,-3.1989,0,-3.1652,-3.1664,-3.1723,-3.1752,-3.176,-3.1797,-3.1821,-3.1853,-3.1863,-3.1907,-3.1917,-3.1933,-3.1972,-3.198,-3.2026,-3.2029,-3.2087,-3.2083,-3.2078,-3.2077,-3.2111,-3.2107,-3.2225,-3.224,-3.2145,-3.2146,-3.2146,0,-3.1703,-3.174,-3.1773,-3.1797,-3.1814,-3.1852,-3.1875,-3.1881,-3.1906,-3.194,-3.1967,-3.2005,-3.2036,-3.2098,-3.2112,-3.2147,-3.2143,-3.2182,-3.2148,-3.2146,-3.2141,-3.2138,-3.2141,-3.2188,-3.2189,-3.219,-3.219,0,-3.1793,-3.1797,-3.1832,-3.1869,-3.1898,-3.1927,-3.1955,-3.1974,-3.1983,-3.2011,-3.2051,-3.2075,-3.2122,-3.216,-3.2194,-3.2209,-3.2201,-3.2201,-3.2211,-3.221,-3.2204,-3.2206,-3.2094,-3.2198,-3.2197,-3.2197,-3.2196,-3.2196,-3.1856,-3.1887,-3.1915,-3.1954,-3.1976,-3.2002,-3.2032,-3.2046,-3.208,-3.212,-3.2121,-3.2164,-3.219,-3.2236,-3.2252,-3.2285,-3.2273,-3.2287,-3.2291,-3.2294,-3.2296,-3.2201,-3.2292,-3.2292,-3.2291,-3.2291,-3.2291,0,-3.1944,-3.1961,-3.1997,-3.2036,-3.2066,-3.2058,-3.2088,-3.2113,-3.2151,-3.2177,-3.2207,-3.2253,-3.2289,-3.2306,-3.2341,-3.2364,-3.2361,-3.2373,-3.237,-3.2374,-3.2306,-3.2293,-3.2375,-3.2375,-3.2375,-3.2375,-3.2375,-3.2375,-3.1993,-3.2045,-3.2052,-3.2115,-3.2132,-3.2175,-3.2192,-3.2216,-3.2236,-3.2287,-3.2317,-3.2329,-3.235,-3.2387,-3.2419,-3.2423,-3.2436,-3.2449,-3.2451,-3.2387,-3.2379,-3.237,-3.2358,-3.2452,-3.2452,-3.2516,-3.2516,-3.2517]}]]